EW7061 West Harwich MA US current weather conditions

sailwx.info

Wind from 332 at 2 knots gusting 6

Air temperature 21.7° C
Dewpoint 15.9° C

Last reported at 2019-Aug-23 21:07 UTC.
Time now 2019-Aug-23 21:54 UTC

Location: N 41°40' W 070°07'.
View on Google Maps.

See reports from other nearby stations

  
Tides and Currents Weather Stations Pressure Air Temp Water Temp Dewpoint Dewpoint Depression Visibility Wind Speed Wind Dir Waves Ship Positions
date/time (UTC)wind fromknots sea level pressurealtimeterstation pressurevisibilityair tempwater tempwave heightnotes
2019-Aug-23 21:07 332 2 gusting 6 21.7
2019-Aug-23 21:02 327 2 gusting 6 21.7
2019-Aug-23 20:57 326 2 gusting 6 21.7
2019-Aug-23 20:52 311 2 gusting 6 22.2
2019-Aug-23 20:47 326 1 gusting 5 22.2
2019-Aug-23 20:42 323 1 gusting 5 22.2
2019-Aug-23 20:37 335 1 gusting 5 22.2
2019-Aug-23 20:32 315 1 gusting 5 22.2
2019-Aug-23 20:27 329 1 gusting 5 22.2
2019-Aug-23 20:22 333 1 gusting 8 22.2
2019-Aug-23 20:17 341 2 gusting 8 21.7
2019-Aug-23 20:12 333 2 gusting 6 21.7
2019-Aug-23 20:07 355 1 gusting 6 21.7
2019-Aug-23 20:02 275 1 gusting 6 21.7
2019-Aug-23 19:57 344 2 gusting 5 21.7
2019-Aug-23 19:52 301 2 gusting 6 21.7
2019-Aug-23 19:47 345 2 gusting 6 21.7
2019-Aug-23 19:42 350 1 gusting 6 21.7
2019-Aug-23 19:37 313 1 gusting 6 21.7
2019-Aug-23 19:32 305 2 gusting 7 21.7
2019-Aug-23 19:27 334 2 gusting 7 21.7
2019-Aug-23 19:22 335 2 gusting 6 21.7
2019-Aug-23 19:17 342 1 gusting 6 21.7
2019-Aug-23 19:12 136 1 gusting 6 21.7
2019-Aug-23 19:07 273 1 gusting 5 21.7
2019-Aug-23 19:02 349 1 gusting 5 21.7
2019-Aug-23 18:57 319 1 gusting 5 21.7
2019-Aug-23 18:52 284 1 gusting 8 21.7
2019-Aug-23 18:47 306 2 gusting 8 21.7
2019-Aug-23 18:42 335 2 gusting 7 21.7
2019-Aug-23 18:37 342 3 gusting 7 21.7
2019-Aug-23 18:32 332 2 gusting 7 22.2
2019-Aug-23 18:27 331 1 gusting 6 22.2
2019-Aug-23 18:22 344 2 gusting 7 22.2
2019-Aug-23 18:17 024 2 gusting 7 21.7
2019-Aug-23 18:12 339 2 gusting 7 21.7
2019-Aug-23 18:07 339 2 gusting 7 21.7
2019-Aug-23 18:02 333 2 gusting 7 21.7
2019-Aug-23 17:57 315 2 gusting 9 21.7
2019-Aug-23 17:52 269 3 gusting 9 21.7
2019-Aug-23 17:47 307 2 gusting 9 21.7
2019-Aug-23 17:42 318 1 gusting 5 21.7
2019-Aug-23 17:37 314 1 gusting 7 21.7
2019-Aug-23 17:32 21.7
2019-Aug-23 17:27 005 2 gusting 6 21.7
2019-Aug-23 17:22 339 1 gusting 5 21.7
2019-Aug-23 17:17 321 1 gusting 5 21.7
2019-Aug-23 17:12 290 1 gusting 5 21.1
2019-Aug-23 17:07 329 1 gusting 5 21.1
2019-Aug-23 17:02 281 1 gusting 4 20.6
2019-Aug-23 16:57 275 1 gusting 6 20.6
2019-Aug-23 16:52 292 1 gusting 7 20.6
2019-Aug-23 16:47 338 2 gusting 7 20.0
2019-Aug-23 16:42 330 2 gusting 7 20.0
2019-Aug-23 16:37 323 2 gusting 6 20.0
2019-Aug-23 16:32 302 1 gusting 5 20.0
2019-Aug-23 16:27 278 1 gusting 4 20.0
2019-Aug-23 16:22 336 0 gusting 2 20.0
2019-Aug-23 16:17 331 1 gusting 2 20.0
2019-Aug-23 16:12 314 0 gusting 2 19.4
2019-Aug-23 16:07 338 19.4
2019-Aug-23 16:02 284 19.4
2019-Aug-23 15:57 311 0 gusting 4 18.9
2019-Aug-23 15:52 308 1 gusting 5 18.9
2019-Aug-23 15:47 018 1 gusting 5 18.9
2019-Aug-23 15:42 350 1 gusting 3 18.9
2019-Aug-23 15:37 290 1 gusting 3 18.9
2019-Aug-23 15:32 345 1 gusting 2 18.9
2019-Aug-23 15:27 349 1 gusting 2 18.9
2019-Aug-23 15:22 329 1 gusting 4 18.3
2019-Aug-23 15:17 322 1 gusting 4 18.3
2019-Aug-23 15:12 294 1 gusting 5 18.3
2019-Aug-23 15:07 338 1 gusting 6 18.3
2019-Aug-23 15:02 306 2 gusting 7 18.3
2019-Aug-23 14:57 012 2 gusting 7 18.3
2019-Aug-23 14:52 347 2 gusting 6 18.3
2019-Aug-23 14:47 298 1 gusting 6 18.3
2019-Aug-23 14:42 316 1 gusting 7 18.3
2019-Aug-23 14:37 113 2 gusting 7 18.3
2019-Aug-23 14:32 355 2 gusting 7 18.9
2019-Aug-23 14:27 18.9
2019-Aug-23 14:22 316 3 gusting 8 18.9
2019-Aug-23 14:17 331 3 gusting 9 18.9
2019-Aug-23 14:12 316 3 gusting 10 18.9
2019-Aug-23 14:07 327 3 gusting 11 18.9
2019-Aug-23 14:02 288 4 gusting 11 18.9
2019-Aug-23 13:57 275 4 gusting 10 19.4
2019-Aug-23 13:52 269 3 gusting 8 19.4
2019-Aug-23 13:47 265 3 gusting 8 20.0
2019-Aug-23 13:42 319 3 gusting 8 20.0
2019-Aug-23 13:37 327 2 gusting 8 20.6
2019-Aug-23 13:32 322 2 gusting 6 20.6
2019-Aug-23 13:27 322 2 gusting 6 20.6
2019-Aug-23 13:22 306 2 gusting 7 21.1
2019-Aug-23 13:17 315 2 gusting 8 21.1
2019-Aug-23 13:12 017 3 gusting 8 21.1
2019-Aug-23 13:07 238 2 gusting 6 21.7
2019-Aug-23 13:02 322 2 gusting 7 21.7
2019-Aug-23 12:57 319 1 gusting 7 21.7
2019-Aug-23 12:52 335 2 gusting 7 21.7
2019-Aug-23 12:42 255 2 gusting 7 22.2
2019-Aug-23 12:37 321 2 gusting 8 22.2
2019-Aug-23 12:32 317 2 gusting 8 22.2
2019-Aug-23 12:27 319 3 gusting 8 22.2
2019-Aug-23 12:22 333 3 gusting 8 22.2
2019-Aug-23 12:17 005 2 gusting 6 22.2
2019-Aug-23 12:12 343 2 gusting 8 22.2
2019-Aug-23 12:07 317 1 gusting 8 22.2
2019-Aug-23 12:02 272 2 gusting 8 22.2
2019-Aug-23 11:57 304 2 gusting 8 21.7
2019-Aug-23 11:52 232 2 gusting 8 21.7
2019-Aug-23 11:47 276 1 gusting 6 21.7
2019-Aug-23 11:42 331 1 gusting 4 21.7
2019-Aug-23 11:37 291 1 gusting 3 21.7
2019-Aug-23 11:32 306 0 gusting 3 21.7
2019-Aug-23 11:27 317 1 gusting 3 21.7
2019-Aug-23 11:22 334 1 gusting 3 21.7
2019-Aug-23 11:17 335 0 gusting 3 21.7
2019-Aug-23 11:12 292 0 gusting 3 21.7
2019-Aug-23 11:07 331 21.7
2019-Aug-23 11:02 332 21.7
2019-Aug-23 10:57 337 21.7
2019-Aug-23 10:52 343 21.7
2019-Aug-23 10:47 343 21.7
2019-Aug-23 10:42 344 21.7
2019-Aug-23 10:37 344 21.7
2019-Aug-23 10:32 343 0 gusting 2 21.7
2019-Aug-23 10:27 344 0 gusting 2 21.7
2019-Aug-23 10:22 343 0 gusting 2 21.7
2019-Aug-23 10:17 333 21.7
2019-Aug-23 10:12 333 21.7
2019-Aug-23 10:07 333 21.7
2019-Aug-23 10:02 337 21.7
2019-Aug-23 09:57 337 0 gusting 2 21.7
2019-Aug-23 09:52 337 0 gusting 4 21.7
2019-Aug-23 09:47 335 0 gusting 4 21.7
2019-Aug-23 09:42 344 0 gusting 2 21.7
2019-Aug-23 09:37 338 0 gusting 2 21.7
2019-Aug-23 09:32 350 0 gusting 2 21.7
2019-Aug-23 09:27 355 0 gusting 2 22.2
2019-Aug-23 09:22 343 0 gusting 3 22.2
2019-Aug-23 09:17 344 0 gusting 3 22.2
2019-Aug-23 09:12 355 0 gusting 3 22.2
2019-Aug-23 09:07 335 0 gusting 4 22.2
2019-Aug-23 09:02 299 0 gusting 6 22.2
2019-Aug-23 08:57 325 1 gusting 6 22.2
2019-Aug-23 08:52 275 1 gusting 6 22.2
2019-Aug-23 08:47 348 1 gusting 5 22.2
2019-Aug-23 08:42 284 1 gusting 5 22.8
2019-Aug-23 08:37 027 1 gusting 4 22.8
2019-Aug-23 08:32 333 1 gusting 5 22.8
2019-Aug-23 08:27 275 1 gusting 5 22.8
2019-Aug-23 08:22 327 1 gusting 5 22.8
2019-Aug-23 08:17 335 1 gusting 7 22.8
2019-Aug-23 08:12 273 2 gusting 7 22.8
2019-Aug-23 08:07 333 2 gusting 7 23.3
2019-Aug-23 08:02 333 1 gusting 6 23.3
2019-Aug-23 07:57 342 1 gusting 6 23.3
2019-Aug-23 07:52 329 1 gusting 6 23.3
2019-Aug-23 07:47 355 1 gusting 7 23.3
2019-Aug-23 07:42 343 2 gusting 7 23.3
2019-Aug-23 07:37 319 2 gusting 7 23.9
2019-Aug-23 07:32 343 1 gusting 5 23.9
2019-Aug-23 07:27 335 2 gusting 5 23.9
2019-Aug-23 07:22 355 1 gusting 5 23.9
2019-Aug-23 07:17 335 1 gusting 4 23.9
2019-Aug-23 07:12 331 1 gusting 3 23.9
2019-Aug-23 07:07 323 0 gusting 5 23.9
2019-Aug-23 07:02 311 1 gusting 5 23.9
2019-Aug-23 06:57 293 1 gusting 5 23.9
2019-Aug-23 06:52 338 1 gusting 6 24.4
2019-Aug-23 06:47 290 1 gusting 6 24.4
2019-Aug-23 06:42 304 1 gusting 4 23.9
2019-Aug-23 06:37 337 1 gusting 4 23.9
2019-Aug-23 06:32 289 0 gusting 2 23.9
2019-Aug-23 06:27 338 1 gusting 3 23.9
2019-Aug-23 06:22 315 1 gusting 3 23.9
2019-Aug-23 06:17 309 0 gusting 3 24.4
2019-Aug-23 06:12 011 0 gusting 3 24.4
2019-Aug-23 06:07 292 0 gusting 5 24.4
2019-Aug-23 06:02 296 0 gusting 5 24.4
2019-Aug-23 05:57 324 0 gusting 5 24.4
2019-Aug-23 05:52 296 0 gusting 4 23.9
2019-Aug-23 05:47 242 23.9
2019-Aug-23 05:42 291 23.9
2019-Aug-23 05:37 291 23.9
2019-Aug-23 05:32 291 23.9
2019-Aug-23 05:27 291 23.9
2019-Aug-23 05:22 291 23.9
2019-Aug-23 05:17 291 23.9
2019-Aug-23 05:12 291 23.9
2019-Aug-23 05:07 291 0 gusting 3 24.4
2019-Aug-23 05:02 291 0 gusting 3 24.4
2019-Aug-23 04:57 281 24.4
2019-Aug-23 04:52 310 24.4
2019-Aug-23 04:47 306 0 gusting 2 24.4
2019-Aug-23 04:42 306 0 gusting 2 24.4
2019-Aug-23 04:37 339 0 gusting 2 24.4
2019-Aug-23 04:32 293 24.4
2019-Aug-23 04:27 249 24.4
2019-Aug-23 04:22 265 0 gusting 2 24.4
2019-Aug-23 04:17 254 0 gusting 6 24.4
2019-Aug-23 04:12 283 1 gusting 6 24.4
2019-Aug-23 04:07 277 1 gusting 6 24.4
2019-Aug-23 04:02 266 1 gusting 3 24.4
2019-Aug-23 03:57 323 0 gusting 3 24.4
2019-Aug-23 03:52 300 0 gusting 3 24.4
2019-Aug-23 03:47 264 0 gusting 3 24.4
2019-Aug-23 03:42 242 0 gusting 5 24.4
2019-Aug-23 03:37 255 0 gusting 5 24.4
2019-Aug-23 03:32 237 0 gusting 5 24.4
2019-Aug-23 03:27 272 0 gusting 3 24.4
2019-Aug-23 03:22 229 0 gusting 3 24.4
2019-Aug-23 03:17 195 0 gusting 2 24.4
2019-Aug-23 03:12 270 0 gusting 2 25.0
2019-Aug-23 03:07 138 0 gusting 4 25.0
2019-Aug-23 03:02 138 0 gusting 6 25.0
2019-Aug-23 02:57 136 1 gusting 6 25.0
2019-Aug-23 02:52 260 1 gusting 6 25.0
2019-Aug-23 02:47 216 0 gusting 3 25.0
2019-Aug-23 02:42 174 0 gusting 4 25.0
2019-Aug-23 02:37 148 1 gusting 4 25.0
2019-Aug-23 02:32 197 0 gusting 6 25.0
2019-Aug-23 02:27 166 0 gusting 6 25.0
2019-Aug-23 02:22 130 0 gusting 6 25.0
2019-Aug-23 02:17 302 0 gusting 3 25.0
2019-Aug-23 02:12 259 0 gusting 6 25.0
2019-Aug-23 02:07 170 0 gusting 6 25.0
2019-Aug-23 02:02 346 1 gusting 6 25.0
2019-Aug-23 01:57 234 1 gusting 6 25.0
2019-Aug-23 01:52 213 1 gusting 4 25.0
2019-Aug-23 01:47 229 0 gusting 6 25.0
2019-Aug-23 01:42 193 1 gusting 6 25.0
2019-Aug-23 01:37 261 1 gusting 6 25.0
2019-Aug-23 01:32 219 1 gusting 6 25.0
2019-Aug-23 01:27 159 1 gusting 9 25.0
2019-Aug-23 01:22 271 1 gusting 9 25.0
2019-Aug-23 01:17 208 2 gusting 9 25.0
2019-Aug-23 01:12 249 1 gusting 7 25.0
2019-Aug-23 01:07 201 1 gusting 6 25.0
2019-Aug-23 01:02 188 1 gusting 6 25.0
2019-Aug-23 00:57 190 1 gusting 6 25.0
2019-Aug-23 00:52 241 0 gusting 6 25.0
2019-Aug-23 00:47 138 1 gusting 6 25.0
2019-Aug-23 00:42 182 1 gusting 6 25.0
2019-Aug-23 00:37 182 1 gusting 6 25.0
2019-Aug-23 00:32 147 1 gusting 9 25.0
2019-Aug-23 00:27 167 1 gusting 9 25.0
2019-Aug-23 00:22 176 1 gusting 9 25.0
2019-Aug-23 00:17 177 1 gusting 8 25.0
2019-Aug-23 00:12 144 1 gusting 6 25.0
2019-Aug-23 00:07 247 1 gusting 6 25.0
2019-Aug-23 00:02 163 1 gusting 5 25.6
2019-Aug-22 23:57 216 1 gusting 7 25.6
2019-Aug-22 23:52 223 2 gusting 7 25.6
2019-Aug-22 23:47 190 2 gusting 11 25.6
2019-Aug-22 23:42 142 2 gusting 11 25.6
2019-Aug-22 23:37 321 2 gusting 11 25.6
2019-Aug-22 23:32 308 2 gusting 11 25.6
2019-Aug-22 23:27 199 2 gusting 11 25.6
2019-Aug-22 23:22 202 2 gusting 8 25.6
2019-Aug-22 23:17 271 2 gusting 7 25.6
2019-Aug-22 23:12 238 2 gusting 7 25.6
2019-Aug-22 23:07 239 2 gusting 7 25.6
2019-Aug-22 23:02 242 1 gusting 7 25.6
2019-Aug-22 22:57 277 1 gusting 7 25.6
2019-Aug-22 22:52 226 2 gusting 6 25.6
2019-Aug-22 22:47 173 1 gusting 6 25.6
2019-Aug-22 22:42 277 1 gusting 6 25.6
2019-Aug-22 22:37 181 1 gusting 6 25.6
2019-Aug-22 22:32 196 1 gusting 6 25.6
2019-Aug-22 22:27 141 1 gusting 6 26.1
2019-Aug-22 22:22 141 1 gusting 6 25.6
2019-Aug-22 22:17 248 1 gusting 6 25.6
2019-Aug-22 22:12 214 1 gusting 6 25.6
2019-Aug-22 22:07 286 1 gusting 6 25.6
2019-Aug-22 22:02 246 2 gusting 7 25.6
2019-Aug-22 21:57 098 2 gusting 7 26.1
2019-Aug-22 21:52 246 2 gusting 6 26.1
2019-Aug-22 21:47 183 1 gusting 7 26.1
2019-Aug-22 21:42 164 2 gusting 8 26.1
2019-Aug-22 21:37 207 2 gusting 8 26.7
2019-Aug-22 21:32 223 2 gusting 8 26.7
2019-Aug-22 21:27 250 2 gusting 8 26.7
2019-Aug-22 21:22 231 1 gusting 7 26.7
2019-Aug-22 21:17 304 2 gusting 8 26.7
2019-Aug-22 21:12 221 2 gusting 9 26.7
2019-Aug-22 21:07 242 2 gusting 9 26.7
2019-Aug-22 21:02 172 2 gusting 9 26.7
2019-Aug-22 20:57 012 3 gusting 9 26.7
2019-Aug-22 20:52 317 3 gusting 9 26.7
2019-Aug-22 20:47 219 3 gusting 9 27.2
2019-Aug-22 20:42 181 2 gusting 11 27.2
2019-Aug-22 20:37 157 2 gusting 11 27.2
2019-Aug-22 20:32 242 3 gusting 12 27.2
2019-Aug-22 20:27 281 3 gusting 12 27.2
2019-Aug-22 20:22 203 3 gusting 12 27.2
2019-Aug-22 20:17 180 2 gusting 6 27.2
2019-Aug-22 20:12 243 2 gusting 6 27.2
2019-Aug-22 20:07 173 2 gusting 6 27.8
2019-Aug-22 20:02 034 2 gusting 6 27.8
2019-Aug-22 19:57 190 2 gusting 6 27.2
2019-Aug-22 19:52 184 2 gusting 7 27.2
2019-Aug-22 19:47 221 2 gusting 7 27.2
2019-Aug-22 19:42 184 2 gusting 7 27.2
2019-Aug-22 19:37 239 3 gusting 7 27.2
2019-Aug-22 19:32 096 3 gusting 7 26.7
2019-Aug-22 19:27 195 3 gusting 7 26.7
2019-Aug-22 19:22 181 2 gusting 9 26.7
2019-Aug-22 19:17 227 3 gusting 9 26.7
2019-Aug-22 19:12 202 3 gusting 8 27.2
2019-Aug-22 19:07 183 2 gusting 6 27.2
2019-Aug-22 19:02 217 3 gusting 8 27.2
2019-Aug-22 18:57 171 3 gusting 8 26.7
2019-Aug-22 18:52 172 2 gusting 8 26.7
2019-Aug-22 18:47 173 2 gusting 7 27.2
2019-Aug-22 18:42 165 3 gusting 8 27.2
2019-Aug-22 18:37 175 2 gusting 10 27.2
2019-Aug-22 18:32 176 3 gusting 10 27.2
2019-Aug-22 18:27 246 3 gusting 8 26.7
2019-Aug-22 18:22 282 2 gusting 8 27.2
2019-Aug-22 18:17 175 2 gusting 7 27.2
2019-Aug-22 18:12 170 2 gusting 7 27.2
2019-Aug-22 18:07 197 2 gusting 7 27.2
2019-Aug-22 18:02 038 2 gusting 7 27.8
2019-Aug-22 17:57 218 2 gusting 6 27.2
2019-Aug-22 17:52 165 2 gusting 7 27.2
2019-Aug-22 17:47 185 2 gusting 7 27.2
2019-Aug-22 17:42 244 2 gusting 7 27.2
2019-Aug-22 17:37 159 2 gusting 9 27.2
2019-Aug-22 17:32 204 2 gusting 9 26.7
2019-Aug-22 17:27 225 2 gusting 9 27.2
2019-Aug-22 17:22 205 2 gusting 7 27.2
2019-Aug-22 17:17 259 2 gusting 7 27.2
2019-Aug-22 17:12 188 2 gusting 7 27.2
2019-Aug-22 17:07 077 2 gusting 7 26.7
2019-Aug-22 17:02 218 2 gusting 7 26.7
2019-Aug-22 16:57 168 1 gusting 6 26.7
2019-Aug-22 16:52 143 1 gusting 6 27.2
2019-Aug-22 16:47 196 2 gusting 7 26.7
2019-Aug-22 16:42 165 2 gusting 7 26.7
2019-Aug-22 16:37 259 2 gusting 6 26.7
2019-Aug-22 16:32 153 2 gusting 6 26.7
2019-Aug-22 16:27 109 1 gusting 6 26.7
2019-Aug-22 16:22 242 1 gusting 6 26.7
2019-Aug-22 16:17 238 1 gusting 6 26.7
2019-Aug-22 16:12 175 1 gusting 5 26.7
2019-Aug-22 16:07 140 2 gusting 5 26.1
2019-Aug-22 16:02 158 1 gusting 5 26.1
2019-Aug-22 15:57 198 1 gusting 6 26.7
2019-Aug-22 15:52 215 1 gusting 7 26.1
2019-Aug-22 15:47 175 2 gusting 7 26.1
2019-Aug-22 15:42 171 2 gusting 7 26.1
2019-Aug-22 15:37 163 2 gusting 6 26.1
2019-Aug-22 15:32 191 1 gusting 6 26.1
2019-Aug-22 15:27 217 1 gusting 5 26.7
2019-Aug-22 15:22 225 1 gusting 5 26.7
2019-Aug-22 15:17 163 1 gusting 6 26.1
2019-Aug-22 15:12 181 2 gusting 6 26.7
2019-Aug-22 15:07 150 1 gusting 5 26.7
2019-Aug-22 15:02 182 0 gusting 5 26.7
2019-Aug-22 14:57 212 0 gusting 5 26.1
2019-Aug-22 14:52 171 1 gusting 5 26.1
2019-Aug-22 14:47 190 1 gusting 5 26.1
2019-Aug-22 14:42 175 1 gusting 5 26.1
2019-Aug-22 14:37 167 1 gusting 4 26.1
2019-Aug-22 14:32 166 0 gusting 4 26.1
2019-Aug-22 14:27 268 1 gusting 6 26.1
2019-Aug-22 14:22 147 2 gusting 6 26.1
2019-Aug-22 14:17 163 1 gusting 6 26.1
2019-Aug-22 14:12 175 1 gusting 6 26.1
2019-Aug-22 14:07 175 2 gusting 6 25.6
2019-Aug-22 14:02 116 2 gusting 6 25.6
2019-Aug-22 13:57 162 2 gusting 6 25.6
2019-Aug-22 13:52 247 2 gusting 6 25.6
2019-Aug-22 13:47 162 2 gusting 6 25.6
2019-Aug-22 13:42 147 1 gusting 6 26.1
2019-Aug-22 13:37 202 1 gusting 6 26.1
2019-Aug-22 13:32 209 1 gusting 6 26.1
2019-Aug-22 13:27 183 1 gusting 5 26.1
2019-Aug-22 13:22 172 1 gusting 4 26.1
2019-Aug-22 13:17 244 1 gusting 4 26.1
2019-Aug-22 13:12 205 1 gusting 4 25.6
2019-Aug-22 13:07 124 1 gusting 4 25.6
2019-Aug-22 13:02 273 1 gusting 4 25.6
2019-Aug-22 12:57 144 1 gusting 4 25.0
2019-Aug-22 12:52 198 0 gusting 4 24.4
2019-Aug-22 12:47 168 0 gusting 4 24.4
2019-Aug-22 12:42 190 0 gusting 4 24.4
2019-Aug-22 12:37 164 0 gusting 4 24.4
2019-Aug-22 12:32 165 0 gusting 3 24.4
2019-Aug-22 12:27 165 0 gusting 3 24.4
2019-Aug-22 12:22 244 0 gusting 3 24.4
2019-Aug-22 12:17 227 0 gusting 3 24.4
2019-Aug-22 12:12 140 0 gusting 4 23.9
2019-Aug-22 12:07 159 0 gusting 5 23.9
2019-Aug-22 12:02 159 1 gusting 5 23.9
2019-Aug-22 11:57 146 1 gusting 4 23.9
2019-Aug-22 11:52 184 0 gusting 5 23.9
2019-Aug-22 11:47 198 0 gusting 5 23.9
2019-Aug-22 11:42 195 1 gusting 4 23.9
2019-Aug-22 11:37 186 0 gusting 7 23.9
2019-Aug-22 11:32 205 0 gusting 7 23.9
2019-Aug-22 11:27 198 0 gusting 7 23.9
2019-Aug-22 11:22 164 1 gusting 4 23.9
2019-Aug-22 11:17 158 0 gusting 4 23.9
2019-Aug-22 11:12 165 0 gusting 4 23.9
2019-Aug-22 11:07 163 1 gusting 5 23.9
2019-Aug-22 11:02 165 1 gusting 5 23.9
2019-Aug-22 10:57 180 1 gusting 5 23.9
2019-Aug-22 10:52 160 0 gusting 4 23.9
2019-Aug-22 10:47 173 0 gusting 3 24.4
2019-Aug-22 10:42 134 0 gusting 3 24.4
2019-Aug-22 10:37 173 1 gusting 3 24.4
2019-Aug-22 10:32 162 0 gusting 3 24.4
2019-Aug-22 10:27 248 0 gusting 1 24.4
2019-Aug-22 10:22 227 0 gusting 2 24.4
2019-Aug-22 10:17 227 0 gusting 2 24.4
2019-Aug-22 10:12 217 0 gusting 2 24.4
2019-Aug-22 10:07 191 0 gusting 2 24.4
2019-Aug-22 10:02 191 0 gusting 2 24.4
2019-Aug-22 09:57 191 0 gusting 3 24.4
2019-Aug-22 09:52 202 0 gusting 3 24.4
2019-Aug-22 09:47 202 0 gusting 3 24.4
2019-Aug-22 09:42 182 0 gusting 2 23.9
2019-Aug-22 09:37 209 0 gusting 2 24.4
2019-Aug-22 09:32 157 0 gusting 2 23.9
2019-Aug-22 09:27 129 0 gusting 2 24.4
2019-Aug-22 09:22 194 0 gusting 5 24.4
2019-Aug-22 09:17 179 0 gusting 5 24.4
2019-Aug-22 09:12 179 1 gusting 5 24.4
2019-Aug-22 09:07 175 1 gusting 3 24.4
2019-Aug-22 09:02 236 0 gusting 3 24.4
2019-Aug-22 08:57 170 0 gusting 3 24.4
2019-Aug-22 08:52 170 0 gusting 4 24.4
2019-Aug-22 08:47 170 0 gusting 4 24.4
2019-Aug-22 08:42 177 1 gusting 4 24.4
2019-Aug-22 08:37 171 1 gusting 3 24.4
2019-Aug-22 08:32 178 1 gusting 5 24.4
2019-Aug-22 08:27 236 1 gusting 5 24.4
2019-Aug-22 08:22 204 1 gusting 5 24.4
2019-Aug-22 08:17 172 1 gusting 3 24.4
2019-Aug-22 08:12 176 1 gusting 3 24.4
2019-Aug-22 08:07 192 0 gusting 4 24.4
2019-Aug-22 08:02 242 1 gusting 4 24.4
2019-Aug-22 07:57 245 1 gusting 6 24.4
2019-Aug-22 07:52 153 1 gusting 7 24.4
2019-Aug-22 07:47 175 1 gusting 7 24.4
2019-Aug-22 07:42 169 1 gusting 6 24.4
2019-Aug-22 07:37 211 1 gusting 6 24.4
2019-Aug-22 07:32 215 1 gusting 6 25.0
2019-Aug-22 07:27 265 1 gusting 6 25.0
2019-Aug-22 07:22 240 1 gusting 6 25.0
2019-Aug-22 07:17 213 2 gusting 7 25.0
2019-Aug-22 07:12 249 1 gusting 7 25.0
2019-Aug-22 07:07 135 2 gusting 10 25.0
2019-Aug-22 07:02 338 2 gusting 10 25.0
2019-Aug-22 06:57 202 2 gusting 10 25.0
2019-Aug-22 06:52 229 2 gusting 8 25.0
2019-Aug-22 06:47 128 2 gusting 7 25.0
2019-Aug-22 06:42 246 2 gusting 6 25.0
2019-Aug-22 06:37 215 3 gusting 6 25.0
2019-Aug-22 06:32 227 2 gusting 6 25.0
2019-Aug-22 06:27 239 2 gusting 6 25.0
2019-Aug-22 06:22 223 1 gusting 7 25.0
2019-Aug-22 06:17 242 1 gusting 7 25.0
2019-Aug-22 06:12 267 2 gusting 7 25.0
2019-Aug-22 06:07 163 2 gusting 7 25.0
2019-Aug-22 06:02 277 2 gusting 7 25.0
2019-Aug-22 05:57 184 1 gusting 7 25.0
2019-Aug-22 05:52 175 1 gusting 5 25.0
2019-Aug-22 05:47 153 1 gusting 5 25.0
2019-Aug-22 05:42 224 0 gusting 6 24.4
2019-Aug-22 05:37 277 1 gusting 7 24.4
2019-Aug-22 05:32 157 2 gusting 7 24.4
2019-Aug-22 05:27 350 1 gusting 7 25.0
2019-Aug-22 05:22 217 1 gusting 9 25.0
2019-Aug-22 05:17 158 1 gusting 9 25.0
2019-Aug-22 05:12 157 2 gusting 6 25.0
2019-Aug-22 05:07 325 2 gusting 6 25.0
2019-Aug-22 05:02 271 2 gusting 6 25.0
2019-Aug-22 04:57 232 2 gusting 7 25.0
2019-Aug-22 04:52 236 2 gusting 7 25.0
2019-Aug-22 04:47 267 2 gusting 7 25.0
2019-Aug-22 04:42 235 2 gusting 6 25.0
2019-Aug-22 04:37 237 2 gusting 6 25.0
2019-Aug-22 04:32 243 2 gusting 6 25.0
2019-Aug-22 04:27 221 1 gusting 7 25.0
2019-Aug-22 04:22 230 2 gusting 7 25.0
2019-Aug-22 04:17 182 2 gusting 7 25.0
2019-Aug-22 04:12 146 1 gusting 9 25.0
2019-Aug-22 04:07 146 2 gusting 9 25.0
2019-Aug-22 04:02 196 2 gusting 9 25.0
2019-Aug-22 03:57 172 2 gusting 6 25.0
2019-Aug-22 03:52 166 2 gusting 6 25.0
2019-Aug-22 03:47 205 2 gusting 6 24.4
2019-Aug-22 03:42 164 2 gusting 8 24.4
2019-Aug-22 03:37 161 2 gusting 8 24.4
2019-Aug-22 03:32 166 2 gusting 8 24.4
2019-Aug-22 03:27 206 2 gusting 7 24.4
2019-Aug-22 03:22 265 2 gusting 8 24.4
2019-Aug-22 03:17 174 3 gusting 8 24.4
2019-Aug-22 03:12 167 2 gusting 8 24.4
2019-Aug-22 03:07 192 2 gusting 10 24.4
2019-Aug-22 03:02 227 2 gusting 10 24.4
2019-Aug-22 02:57 245 2 gusting 8 24.4
2019-Aug-22 02:52 201 2 gusting 8 24.4
2019-Aug-22 02:47 159 3 gusting 12 24.4
2019-Aug-22 02:42 155 3 gusting 12 24.4
2019-Aug-22 02:37 221 3 gusting 12 24.4
2019-Aug-22 02:32 223 3 gusting 12 25.0
2019-Aug-22 02:27 211 3 gusting 12 25.0
2019-Aug-22 02:22 196 3 gusting 10 25.0
2019-Aug-22 02:17 210 2 gusting 10 25.0
2019-Aug-22 02:12 200 3 gusting 10 24.4
2019-Aug-22 02:07 182 2 gusting 10 24.4
2019-Aug-22 02:02 244 2 gusting 10 24.4
2019-Aug-22 01:57 199 2 gusting 10 24.4
2019-Aug-22 01:52 225 2 gusting 8 24.4
2019-Aug-22 01:47 122 2 gusting 8 24.4
2019-Aug-22 01:42 197 2 gusting 8 24.4
2019-Aug-22 01:37 150 2 gusting 8 24.4
2019-Aug-22 01:32 144 2 gusting 7 24.4
2019-Aug-22 01:27 190 2 gusting 7 24.4
2019-Aug-22 01:22 231 2 gusting 7 24.4
2019-Aug-22 01:17 167 1 gusting 7 24.4
2019-Aug-22 01:12 184 1 gusting 6 24.4
2019-Aug-22 01:07 173 1 gusting 7 24.4
2019-Aug-22 01:02 200 2 gusting 7 24.4
2019-Aug-22 00:57 245 2 gusting 7 24.4
2019-Aug-22 00:52 167 2 gusting 6 24.4
2019-Aug-22 00:47 163 1 gusting 8 24.4
2019-Aug-22 00:42 170 2 gusting 8 24.4
2019-Aug-22 00:37 225 2 gusting 8 24.4
2019-Aug-22 00:32 175 1 gusting 6 24.4
2019-Aug-22 00:27 229 1 gusting 6 24.4
2019-Aug-22 00:22 182 1 gusting 7 24.4
2019-Aug-22 00:17 193 1 gusting 7 24.4
2019-Aug-22 00:12 169 1 gusting 7 24.4
2019-Aug-22 00:07 215 1 gusting 6 24.4
2019-Aug-22 00:02 214 1 gusting 6 24.4
2019-Aug-21 23:57 221 1 gusting 8 24.4
2019-Aug-21 23:52 150 2 gusting 8 24.4
2019-Aug-21 23:47 208 2 gusting 8 24.4
2019-Aug-21 23:42 173 2 gusting 6 24.4
2019-Aug-21 23:37 168 2 gusting 6 24.4
2019-Aug-21 23:32 250 2 gusting 7 24.4
2019-Aug-21 23:27 174 1 gusting 7 24.4
2019-Aug-21 23:22 200 1 gusting 7 24.4
2019-Aug-21 23:17 238 2 gusting 7 24.4
2019-Aug-21 23:12 194 2 gusting 8 24.4
2019-Aug-21 23:07 165 2 gusting 8 24.4
2019-Aug-21 23:02 171 2 gusting 8 24.4
2019-Aug-21 22:57 180 2 gusting 11 24.4
2019-Aug-21 22:52 173 2 gusting 11 24.4
2019-Aug-21 22:47 165 2 gusting 6 24.4
2019-Aug-21 22:42 140 1 gusting 8 24.4
2019-Aug-21 22:37 259 1 gusting 8 24.4
2019-Aug-21 22:32 185 1 gusting 8 25.0
2019-Aug-21 22:27 242 1 gusting 6 25.0
2019-Aug-21 22:22 211 1 gusting 9 25.0
2019-Aug-21 22:17 250 2 gusting 9 25.0
2019-Aug-21 22:12 120 2 gusting 9 25.0
2019-Aug-21 22:07 179 2 gusting 9 25.0
2019-Aug-21 22:02 211 2 gusting 8 25.0
2019-Aug-21 21:57 148 2 gusting 10 25.0
2019-Aug-21 21:52 165 2 gusting 10 25.0
2019-Aug-21 21:47 182 2 gusting 8 25.0
2019-Aug-21 21:42 184 2 gusting 8 25.0
2019-Aug-21 21:37 194 2 gusting 8 25.6
2019-Aug-21 21:32 240 2 gusting 7 25.6
2019-Aug-21 21:27 285 2 gusting 9 25.6
2019-Aug-21 21:22 123 3 gusting 9 25.6
2019-Aug-21 21:17 169 3 gusting 9 25.6
2019-Aug-21 21:12 271 2 gusting 7 25.6
2019-Aug-21 21:07 218 2 gusting 7 25.6
2019-Aug-21 21:02 183 2 gusting 7 25.6